Weather History for Anoka County, MN

Change the Weather History Date:

Monday, April 22, 2013

  Actual Average Record
Temperature  
Mean Temperature 38 °F -  
Max Temperature 44 °F 57 °F 75 °F (2007)
Min Temperature 33 °F 36 °F 30 °F (2005)
Degree Days  
Heating Degree Days 26    
Moisture  
Dew Point 34 °F    
Average Humidity 89    
Maximum Humidity 100    
Minimum Humidity 53    
Precipitation  
Precipitation 0.00 in - - ()
Sea Level Pressure  
Sea Level Pressure 30.16 in    
Wind  
Wind Speed 8 mph (NNW)    
Max Wind Speed 21 mph    
Max Gust Speed 28 mph    
Visibility 6 miles    
Events Rain , Snow    
Averages and records for this station are not official NWS values.
T = Trace of Precipitation, MM = Missing Value Source: NWS Daily Summary

Daily Weather History Graph

Daily Weather History Graph

Search for Another Location

Airport:

Trip Planner

Search our weather history database for the weather conditions in past years. The results will help you decide how hot, cold, wet, or windy it might be!

Date:

Astronomy

Apr. 22, 2013 Rise Set
Actual Time 6:15 AM CDT 8:07 PM CDT
Civil Twilight 5:44 AM CDT 8:39 PM CDT
Nautical Twilight 5:05 AM CDT 9:18 PM CDT
Astronomical Twilight 4:23 AM CDT 10:00 PM CDT
Moon 4:49 PM CDT (4/22) 4:19 AM CDT (4/22)
Length of Visible Light 14h 55m
Length of Day
13h 52m
Waxing Gibbous, 88% of the Moon is Illuminated
Apr 22
Waxing Gibbous
Apr 25
Full
May 2
Last Quarter
May 9
New
May 17
First Quarter

Hourly Weather History & Observations

Time (CDT) Temp. Windchill Dew Point Humidity Pressure Visibility Wind Dir Wind Speed Gust Speed Precip Events Conditions
12:13 AM 41.0 °F 36.4 °F 39.2 °F 93% 30.13 in 10.0 mi West 6.9 mph - N/A   Overcast
12:34 AM 41.0 °F 37.1 °F 39.2 °F 93% 30.14 in 5.0 mi West 5.8 mph - N/A   Overcast
12:54 AM 39.2 °F 33.6 °F 39.2 °F 100% 30.15 in 5.0 mi West 8.1 mph - N/A   Overcast
1:13 AM 39.2 °F 35.9 °F 39.2 °F 100% 30.15 in 3.0 mi West 4.6 mph - N/A   Overcast
1:34 AM 39.2 °F 35.0 °F 37.4 °F 93% 30.15 in 4.0 mi NW 5.8 mph - N/A   Overcast
1:54 AM 39.2 °F - 37.4 °F 93% 30.14 in 4.0 mi Calm Calm - N/A   Overcast
2:13 AM 37.4 °F 32.8 °F 37.4 °F 100% 30.14 in 4.0 mi NW 5.8 mph - N/A   Overcast
2:34 AM 37.4 °F 31.4 °F 37.4 °F 100% 30.15 in 5.0 mi NW 8.1 mph - N/A   Overcast
2:54 AM 37.4 °F 32.1 °F 37.4 °F 100% 30.16 in 4.0 mi WNW 6.9 mph - N/A   Overcast
3:13 AM 37.4 °F 32.8 °F 37.4 °F 100% 30.16 in 7.0 mi WNW 5.8 mph - N/A   Overcast
3:34 AM 37.4 °F 32.1 °F 35.6 °F 93% 30.17 in 10.0 mi NW 6.9 mph - N/A   Overcast
3:54 AM 37.4 °F 34.9 °F 35.6 °F 93% 30.17 in 10.0 mi WNW 3.5 mph - N/A   Overcast
4:13 AM 37.4 °F 33.8 °F 35.6 °F 93% 30.17 in 10.0 mi WNW 4.6 mph - N/A   Overcast
4:34 AM 37.4 °F 32.8 °F 35.6 °F 93% 30.17 in 7.0 mi NW 5.8 mph - N/A   Overcast
4:54 AM 37.4 °F 31.4 °F 35.6 °F 93% 30.18 in 10.0 mi NW 8.1 mph - N/A   Overcast
5:13 AM 37.4 °F 30.8 °F 35.6 °F 93% 30.18 in 10.0 mi NNW 9.2 mph - N/A   Overcast
5:34 AM 37.4 °F 32.1 °F 35.6 °F 93% 30.18 in 10.0 mi North 6.9 mph - N/A   Overcast
5:54 AM 37.4 °F 32.8 °F 35.6 °F 93% 30.18 in 10.0 mi North 5.8 mph - N/A   Overcast
6:14 AM 37.4 °F 32.1 °F 33.8 °F 87% 30.19 in 10.0 mi North 6.9 mph - N/A   Overcast
6:34 AM 37.4 °F 31.4 °F 32.0 °F 81% 30.19 in 10.0 mi North 8.1 mph - N/A   Mostly Cloudy
6:45 AM 35.6 °F 29.2 °F 32.0 °F 87% 30.20 in 10.0 mi North 8.1 mph - N/A   Scattered Clouds
6:54 AM 35.6 °F 29.9 °F 32.0 °F 87% 30.20 in 10.0 mi North 6.9 mph - N/A   Scattered Clouds
7:45 AM 37.4 °F 30.8 °F 32.0 °F 81% 30.20 in 10.0 mi North 9.2 mph - N/A   Scattered Clouds
8:45 AM 39.2 °F 32.0 °F 32.0 °F 75% 30.18 in 10.0 mi NNE 11.5 mph - N/A   Mostly Cloudy
9:45 AM 41.0 °F 34.3 °F 33.8 °F 76% 30.20 in 10.0 mi North 11.5 mph - N/A   Overcast
10:45 AM 41.0 °F 34.7 °F 32.0 °F 70% 30.21 in 10.0 mi NNE 10.4 mph - N/A   Mostly Cloudy
11:45 AM 44.6 °F 38.4 °F 30.2 °F 57% 30.19 in 10.0 mi North 12.7 mph - N/A   Mostly Cloudy
12:45 PM 44.6 °F 37.8 °F 28.4 °F 53% 30.16 in 10.0 mi ENE 15.0 mph - N/A   Overcast
1:55 PM 44.6 °F 38.8 °F 30.2 °F 57% 30.13 in 10.0 mi NE 11.5 mph - N/A   Overcast
2:45 PM 42.8 °F 35.8 °F 30.2 °F 61% 30.17 in 10.0 mi NNW 13.8 mph - N/A   Overcast
3:45 PM 41.0 °F 31.6 °F 30.2 °F 65% 30.14 in 5.0 mi North 20.7 mph 27.6 mph N/A Rain Light Rain
5:20 PM 37.4 °F 27.8 °F 33.8 °F 87% 30.13 in 2.0 mi North 17.3 mph 23.0 mph N/A Rain , Snow Light Rain
5:45 PM 35.6 °F 26.2 °F 33.8 °F 93% 30.13 in 0.8 mi North 15.0 mph 19.6 mph N/A Rain , Snow Light Rain
6:45 PM 33.8 °F 24.3 °F 33.8 °F 100% 30.19 in 0.5 mi North 13.8 mph 19.6 mph N/A Snow Snow
7:24 PM 33.8 °F 24.8 °F 33.8 °F 100% 30.13 in 1.0 mi North 12.7 mph - N/A Snow Light Snow
9:14 PM 33.8 °F 24.8 °F 33.8 °F 100% 30.15 in 5.0 mi North 12.7 mph - N/A   Overcast
9:33 PM 33.8 °F 24.8 °F 33.8 °F 100% 30.14 in 2.0 mi North 12.7 mph - N/A   Overcast
9:54 PM 33.8 °F 24.8 °F 33.8 °F 100% 30.14 in 1.8 mi North 12.7 mph 18.4 mph N/A   Overcast
10:14 PM 33.8 °F 24.8 °F 33.8 °F 100% 30.13 in 2.0 mi North 12.7 mph - N/A   Overcast
10:33 PM 33.8 °F 24.3 °F 33.8 °F 100% 30.13 in 1.8 mi North 13.8 mph - N/A   Overcast
10:53 PM 33.8 °F 25.3 °F 33.8 °F 100% 30.14 in 1.8 mi NNW 11.5 mph - N/A   Overcast
11:14 PM 33.8 °F 25.3 °F 33.8 °F 100% 30.14 in 1.5 mi NNW 11.5 mph - N/A Snow Light Snow
11:33 PM 33.8 °F 24.8 °F 33.8 °F 100% 30.14 in 1.0 mi NNW 12.7 mph - N/A Snow Light Snow
11:54 PM 33.8 °F 24.3 °F 33.8 °F 100% 30.14 in 2.0 mi NNW 13.8 mph - N/A   Overcast